Regional Weather Roundup
Issued by NWS

Home | Current Version | Previous Version | Graphics & Text | Print | Product List | Glossary Off
Versions: 1 2 3 4 5 6 7 8 9 10 11 12 13 14 15 16 17 18 19 20 21 22 23 24 25 26 27 28 29 30 31 32 33 34 35 36 37 38 39 40 41 42 43 44 45 46 47 48 49 50

000
ASUS43 KFSD 310110
RWRSD

WEATHER ROUNDUP FOR SOUTH DAKOTA
NATIONAL WEATHER SERVICE SIOUX FALLS SD
800 PM CDT MON MAY 30 2016

NOTE: "FAIR" INDICATES FEW OR NO CLOUDS BELOW 12,000 FEET WITH NO
SIGNIFICANT WEATHER AND/OR OBSTRUCTIONS TO VISIBILITY.


SDZ001>005-009-010-012>017-310200-
NORTHWEST AND NORTH CENTRAL SOUTH DAKOTA

CITY           SKY/WX    TMP DP  RH WIND       PRES   REMARKS
BUFFALO          N/A     56  46  69 NW29G37   29.89R
FAITH            N/A     60  54  80 N14G24    29.85R
MOBRIDGE       CLOUDY    59  54  83 NW6       29.76R
$$

SDZ012>016-024>037-041>051-057-063-072>074-310200-
SOUTHWEST AND SOUTH CENTRAL SOUTH DAKOTA

CITY           SKY/WX    TMP DP  RH WIND       PRES   REMARKS
RAPID CTY ARPT CLOUDY    59  46  62 NW45G59   29.93R
PIERRE         CLOUDY    64  56  75 NW14G22   29.75R
CUSTER         CLOUDY    61  35  37 NW6       29.99R
ELLSWORTH AFB  CLOUDY    57  47  69 NW38G48   29.93R
PHILIP         PTSUNNY   62  55  77 N13       29.84R
PINE RIDGE     CLOUDY    69  48  47 N12       29.90R
WINNER         LGT RAIN  74  47  38 NW17G28   29.78R
$$

SDZ004>011-016>023-039-040-310200-
NORTHEAST SOUTH DAKOTA

CITY           SKY/WX    TMP DP  RH WIND       PRES   REMARKS
ABERDEEN       CLOUDY    79  59  50 S9        29.72F
WATERTOWN      CLOUDY    78  56  46 S13       29.77F
BROOKINGS      CLOUDY    77  58  51 S7        29.79R
SISSETON         N/A     80  52  37 S9        29.74S
$$

SDZ017-020-022-023-036>040-048>070-310200-
SOUTHEAST SOUTH DAKOTA

CITY           SKY/WX    TMP DP  RH WIND       PRES   REMARKS
SIOUX FALLS    PTCLDY    75  57  53 S7        29.77S
HURON          CLOUDY    76  61  59 S8        29.72F
CHAMBERLAIN    CLOUDY    75  62  64 S12G18    29.74R
MITCHELL       CLOUDY    78  63  59 SE8       29.75S
YANKTON        CLEAR     81  55  41 S9        29.75S
$$

ABBREVIATIONS USED IN REMARKS
   TC - TEMPERATURE IN CELSIUS
  WCI - WIND CHILL INDEX
   HX - HEAT INDEX
  VSB - VISIBILITY




USA.gov is the U.S. government's official web portal to all federal, state and local government web resources and services.